Change the Weather History Date:

Sunday, June 16, 2013

  Actual Average (KSFM) Record (KSFM)
Temperature  
Mean Temperature 60 °F -  
Max Temperature 75 °F 72 °F 91 °F (2001)
Min Temperature 48 °F 50 °F 37 °F (1999)
Degree Days  
Heating Degree Days 4    
Growing Degree Days 10 (Base 50)    
Moisture  
Dew Point 52 °F    
Average Humidity 67    
Maximum Humidity 93    
Minimum Humidity 45    
Precipitation  
Precipitation 0.00 in - - ()
Sea Level Pressure  
Sea Level Pressure 29.81 in    
Wind  
Wind Speed 3 mph (NW)    
Max Wind Speed 7 mph    
Max Gust Speed -    
Visibility 10 miles    
Events      
Averages and records for this station are not official NWS values.
T = Trace of Precipitation, MM = Missing Value Source: NWS Daily Summary

Daily Weather History Graph

Daily Weather History Graph

Search for Another Location

Airport or City:

Trip Planner

Search our weather history database for the weather conditions in past years. The results will help you decide how hot, cold, wet, or windy it might be!

Date:

Astronomy

Jun. 16, 2013 Rise Set
Actual Time 5:02 AM EDT 8:26 PM EDT
Civil Twilight 4:27 AM EDT 9:01 PM EDT
Nautical Twilight 3:40 AM EDT 9:48 PM EDT
Astronomical Twilight 2:43 AM EDT 10:46 PM EDT
Moon 12:47 PM EDT (6/16) 12:18 AM EDT (6/16)
Length of Visible Light 16h 34m
Length of Day
15h 23m
Waxing Crescent, 49% of the Moon is Illuminated
Jun 16
Waxing Crescent
Jun 16
First Quarter
Jun 23
Full
Jun 30
Last Quarter
Jul 8
New

Hourly Weather History & Observations

Time (EDT) Temp. Dew Point Humidity Pressure Visibility Wind Dir Wind Speed Gust Speed Precip Events Conditions
12:51 AM 53.1 °F 48.9 °F 86% 29.90 in 10.0 mi NW 4.6 mph - N/A   Clear
1:51 AM 53.1 °F 48.0 °F 83% 29.90 in 10.0 mi NW 3.5 mph - N/A   Clear
2:51 AM 51.1 °F 46.9 °F 86% 29.90 in 10.0 mi NNW 3.5 mph - N/A   Clear
3:51 AM 48.9 °F 46.9 °F 93% 29.90 in 10.0 mi NNW 5.8 mph - N/A   Clear
4:51 AM 48.9 °F 46.0 °F 90% 29.88 in 10.0 mi Calm Calm - N/A   Clear
5:51 AM 50.0 °F 46.9 °F 89% 29.90 in 10.0 mi Calm Calm - N/A   Clear
6:51 AM 57.9 °F 50.0 °F 75% 29.89 in 10.0 mi NNW 4.6 mph - N/A   Clear
7:51 AM 66.0 °F 51.1 °F 59% 29.90 in 10.0 mi NW 4.6 mph - N/A   Clear
8:51 AM 66.0 °F 54.0 °F 65% 29.89 in 10.0 mi Calm Calm - N/A   Partly Cloudy
9:51 AM 66.9 °F 54.0 °F 63% 29.88 in 10.0 mi Calm Calm - N/A   Mostly Cloudy
10:51 AM 69.1 °F 51.1 °F 53% 29.86 in 10.0 mi Calm Calm - N/A   Partly Cloudy
11:51 AM 73.0 °F 52.0 °F 48% 29.85 in 10.0 mi Variable 3.5 mph - N/A   Clear
12:51 PM 73.9 °F 51.1 °F 45% 29.82 in 10.0 mi Variable 3.5 mph - N/A   Partly Cloudy
1:51 PM 73.9 °F 52.0 °F 46% 29.79 in 10.0 mi South 6.9 mph - N/A   Partly Cloudy
2:51 PM 73.0 °F 52.0 °F 48% 29.76 in 10.0 mi Variable 4.6 mph - N/A   Clear
3:51 PM 72.0 °F 54.0 °F 53% 29.75 in 10.0 mi Variable 5.8 mph - N/A   Scattered Clouds
4:51 PM 70.0 °F 55.0 °F 59% 29.74 in 10.0 mi Calm Calm - 0.00 in   Overcast
5:51 PM 69.1 °F 57.0 °F 65% 29.72 in 10.0 mi Calm Calm - 0.00 in   Overcast
6:51 PM 69.1 °F 57.0 °F 65% 29.70 in 10.0 mi Calm Calm - N/A   Overcast
7:51 PM 68.0 °F 57.0 °F 68% 29.69 in 10.0 mi Calm Calm - N/A   Overcast
8:51 PM 68.0 °F 57.0 °F 68% 29.70 in 10.0 mi Calm Calm - N/A   Overcast
9:51 PM 68.0 °F 57.0 °F 68% 29.71 in 10.0 mi Variable 3.5 mph - N/A   Overcast
10:51 PM 66.9 °F 57.0 °F 70% 29.72 in 10.0 mi Variable 4.6 mph - N/A   Scattered Clouds
11:51 PM 66.0 °F 57.9 °F 75% 29.74 in 10.0 mi Variable 4.6 mph - N/A   Partly Cloudy